sat.trackr.live / text

‹ back to catalog

STARLINK-35619

NORAD 66256 · 2025-245Y

PAYLOAD ACTIVE UNKNOWN

§ Identity

Operator
Country
US
Launch date
2025-10-29
Launch site
AFETR
Launch vehicle
Mass (kg)
RCS (m²)

Purposes: comms

External: N2YO · Heavens-Above · Gunter

§ Orbital elements

Epoch: 2026-05-25T02:56:48.383808Z

Period
94.11 min
Inclination
53.1605°
Eccentricity
0.0001371
Mean motion
15.30198003 rev/d
Perigee alt
474.3 km
Apogee alt
476.2 km
Semi-major
6,853.4 km
B*
1.8457e-4
RAAN
288.5134°
Arg perigee
101.9525°
Mean anomaly
258.1630°
Rev number
3,296

§ Raw data

STARLINK-356191 66256U 25245Y   26145.12278222  .00005111  00000+0  18457-3 0  99922 66256  53.1605 288.5134 0001371 101.9525 258.1630 15.30198003 32968

JSON: /api/v1/satellites/66256 · /tle

For live sub-satellite position, see the globe view (requires WebGL).

§ Visibility from observer

Set your observer location to see the next 7 days of passes ≥ 10°. The values pass through the URL so the page stays shareable.

No JS? Fill the form by hand. The geolocation button needs JavaScript.